Time,TemperatureF,DewpointF,PressureIn,WindDirection,WindDirectionDegrees,WindSpeedMPH,WindSpeedGustMPH,Humidity,HourlyPrecipIn,Conditions,Clouds,dailyrainin,SoftwareType,DateUTC
2013-06-26 00:01:00,77.1,73.6,29.94,WSW,257,0.0,0.0,89,0.00,,,0.00,perl,2013-06-26 04:01:00,
2013-06-26 00:03:00,77.1,73.6,29.94,WSW,257,0.0,0.0,89,0.00,,,0.00,perl,2013-06-26 04:03:00,
2013-06-26 00:04:00,77.1,73.6,29.94,WSW,257,0.0,0.0,89,0.00,,,0.00,perl,2013-06-26 04:04:00,
2013-06-26 00:05:00,77.0,73.8,29.94,WSW,256,0.0,0.0,90,0.00,,,0.00,perl,2013-06-26 04:05:00,
2013-06-26 00:07:00,77.0,73.8,29.94,WSW,246,0.0,0.0,90,0.00,,,0.00,perl,2013-06-26 04:07:00,
2013-06-26 00:13:00,76.9,73.7,29.94,SW,225,0.0,0.0,90,0.00,,,0.00,perl,2013-06-26 04:13:00,
2013-06-26 00:18:00,76.8,73.6,29.94,SSW,206,0.0,0.0,90,0.00,,,0.00,perl,2013-06-26 04:18:00,
2013-06-26 00:23:00,76.7,73.5,29.94,SSW,206,0.0,0.0,90,0.00,,,0.00,perl,2013-06-26 04:23:00,
2013-06-26 00:29:00,76.6,73.4,29.94,SSW,206,0.0,0.0,90,0.00,,,0.00,perl,2013-06-26 04:29:00,
2013-06-26 00:34:00,76.5,73.3,29.94,SW,229,0.0,0.0,90,0.00,,,0.00,perl,2013-06-26 04:34:00,
2013-06-26 00:39:00,76.4,73.2,29.94,SSW,211,0.0,0.0,90,0.00,,,0.00,perl,2013-06-26 04:39:00,
2013-06-26 00:44:00,76.3,73.5,29.94,WSW,237,0.0,0.0,91,0.00,,,0.00,perl,2013-06-26 04:44:00,
2013-06-26 00:49:00,76.2,73.4,29.94,WSW,248,0.0,0.0,91,0.00,,,0.00,perl,2013-06-26 04:49:00,
2013-06-26 00:54:00,76.1,73.3,29.94,WSW,246,0.0,0.0,91,0.00,,,0.00,perl,2013-06-26 04:54:00,
2013-06-26 00:59:00,76.0,73.2,29.94,South,174,0.0,0.0,91,0.00,,,0.00,perl,2013-06-26 04:59:00,
2013-06-26 01:04:00,75.8,73.0,29.94,WSW,237,0.0,0.0,91,0.00,,,0.00,perl,2013-06-26 05:04:00,
2013-06-26 01:09:00,75.6,73.1,29.94,SW,226,0.0,0.0,92,0.00,,,0.00,perl,2013-06-26 05:09:00,
2013-06-26 01:14:00,75.4,72.9,29.94,SW,215,0.0,0.0,92,0.00,,,0.00,perl,2013-06-26 05:14:00,
2013-06-26 01:19:00,75.3,72.8,29.94,SW,230,0.0,0.0,92,0.00,,,0.00,perl,2013-06-26 05:19:00,
2013-06-26 01:24:00,75.1,72.9,29.94,SW,230,0.0,0.0,93,0.00,,,0.00,perl,2013-06-26 05:24:00,
2013-06-26 01:29:00,75.0,72.8,29.94,SW,230,0.0,0.0,93,0.00,,,0.00,perl,2013-06-26 05:29:00,
2013-06-26 01:34:00,74.8,72.6,29.94,SW,230,0.0,0.0,93,0.00,,,0.00,perl,2013-06-26 05:34:00,
2013-06-26 01:39:00,74.6,72.4,29.94,SW,231,0.0,0.0,93,0.00,,,0.00,perl,2013-06-26 05:39:00,
2013-06-26 01:44:00,74.4,72.5,29.93,SW,221,0.0,0.0,94,0.00,,,0.00,perl,2013-06-26 05:44:00,
2013-06-26 01:49:00,74.4,72.5,29.93,SW,221,0.0,0.0,94,0.00,,,0.00,perl,2013-06-26 05:49:00,
2013-06-26 01:54:00,74.2,72.3,29.93,SW,221,0.0,0.0,94,0.00,,,0.00,perl,2013-06-26 05:54:00,
2013-06-26 01:59:00,74.1,72.2,29.93,SW,221,0.0,0.0,94,0.00,,,0.00,perl,2013-06-26 05:59:00,
2013-06-26 02:04:00,73.9,72.3,29.93,SW,221,0.0,0.0,95,0.00,,,0.00,perl,2013-06-26 06:04:00,
2013-06-26 02:09:00,73.7,72.1,29.93,SW,221,0.0,0.0,95,0.00,,,0.00,perl,2013-06-26 06:09:00,
2013-06-26 02:14:00,73.6,72.0,29.93,SW,221,0.0,0.0,95,0.00,,,0.00,perl,2013-06-26 06:14:00,
2013-06-26 02:19:00,73.4,72.2,29.93,SW,221,0.0,0.0,96,0.00,,,0.00,perl,2013-06-26 06:19:00,
2013-06-26 02:24:00,73.1,71.9,29.93,SW,221,0.0,0.0,96,0.00,,,0.00,perl,2013-06-26 06:24:00,
2013-06-26 02:29:00,73.0,71.8,29.92,SW,221,0.0,0.0,96,0.00,,,0.00,perl,2013-06-26 06:29:00,
2013-06-26 02:34:00,72.9,71.7,29.92,SW,221,0.0,0.0,96,0.00,,,0.00,perl,2013-06-26 06:34:00,
2013-06-26 02:39:00,72.8,71.9,29.92,SW,221,0.0,0.0,97,0.00,,,0.00,perl,2013-06-26 06:39:00,
2013-06-26 02:44:00,72.6,71.7,29.93,SW,221,0.0,0.0,97,0.00,,,0.00,perl,2013-06-26 06:44:00,
2013-06-26 02:49:00,72.5,71.6,29.93,SW,221,0.0,0.0,97,0.00,,,0.00,perl,2013-06-26 06:49:00,
2013-06-26 02:54:00,72.4,71.8,29.93,SW,229,0.0,0.0,98,0.00,,,0.00,perl,2013-06-26 06:54:00,
2013-06-26 02:59:00,72.4,71.8,29.92,SW,229,0.0,0.0,98,0.00,,,0.00,perl,2013-06-26 06:59:00,
2013-06-26 03:04:00,72.4,71.8,29.92,SW,229,0.0,0.0,98,0.00,,,0.00,perl,2013-06-26 07:04:00,
2013-06-26 03:09:00,72.3,71.7,29.92,SW,229,0.0,0.0,98,0.00,,,0.00,perl,2013-06-26 07:09:00,
2013-06-26 03:14:00,72.3,71.7,29.92,SW,231,0.0,0.0,98,0.00,,,0.00,perl,2013-06-26 07:14:00,
2013-06-26 03:19:00,72.3,71.7,29.92,SW,230,0.0,0.0,98,0.00,,,0.00,perl,2013-06-26 07:19:00,
2013-06-26 03:24:00,72.4,71.8,29.92,SW,230,0.0,0.0,98,0.00,,,0.00,perl,2013-06-26 07:24:00,
2013-06-26 03:29:00,72.4,71.8,29.92,SW,231,0.0,0.0,98,0.00,,,0.00,perl,2013-06-26 07:29:00,
2013-06-26 03:34:00,72.4,71.8,29.92,SW,232,0.0,0.0,98,0.00,,,0.00,perl,2013-06-26 07:34:00,
2013-06-26 03:39:00,72.4,71.8,29.92,SW,227,0.0,0.0,98,0.00,,,0.00,perl,2013-06-26 07:39:00,
2013-06-26 03:44:00,72.5,71.9,29.92,SW,230,0.0,0.0,98,0.00,,,0.00,perl,2013-06-26 07:44:00,
2013-06-26 03:49:00,72.5,71.9,29.92,SW,231,0.0,0.0,98,0.00,,,0.00,perl,2013-06-26 07:49:00,
2013-06-26 03:54:00,72.4,71.8,29.92,SW,231,0.0,0.0,98,0.00,,,0.00,perl,2013-06-26 07:54:00,
2013-06-26 03:59:00,72.4,71.8,29.92,SW,230,0.0,0.0,98,0.00,,,0.00,perl,2013-06-26 07:59:00,
2013-06-26 04:04:00,72.3,71.4,29.92,SW,231,0.0,0.0,97,0.00,,,0.00,perl,2013-06-26 08:04:00,
2013-06-26 04:09:00,72.3,71.7,29.92,SW,230,0.0,0.0,98,0.00,,,0.00,perl,2013-06-26 08:09:00,
2013-06-26 04:14:00,72.3,71.7,29.93,SW,230,0.0,0.0,98,0.00,,,0.00,perl,2013-06-26 08:14:00,
2013-06-26 04:19:00,72.4,71.8,29.93,SW,230,0.0,0.0,98,0.00,,,0.00,perl,2013-06-26 08:19:00,
2013-06-26 04:24:00,72.4,71.8,29.93,SW,231,0.0,0.0,98,0.00,,,0.00,perl,2013-06-26 08:24:00,
2013-06-26 04:29:00,72.3,71.4,29.92,SW,231,0.0,0.0,97,0.00,,,0.00,perl,2013-06-26 08:29:00,
2013-06-26 04:34:00,72.2,71.3,29.92,SW,230,0.0,0.0,97,0.00,,,0.00,perl,2013-06-26 08:34:00,
2013-06-26 04:39:00,72.1,71.5,29.92,SW,230,0.0,0.0,98,0.00,,,0.00,perl,2013-06-26 08:39:00,
2013-06-26 04:44:00,71.9,71.3,29.91,SW,231,0.0,0.0,98,0.00,,,0.00,perl,2013-06-26 08:44:00,
2013-06-26 04:49:00,71.8,71.2,29.91,SW,230,0.0,0.0,98,0.00,,,0.00,perl,2013-06-26 08:49:00,
2013-06-26 04:54:00,71.8,71.2,29.91,SW,230,0.0,0.0,98,0.00,,,0.00,perl,2013-06-26 08:54:00,
2013-06-26 04:59:00,71.9,71.6,29.92,SW,232,0.0,0.0,99,0.00,,,0.00,perl,2013-06-26 08:59:00,
2013-06-26 05:04:00,72.0,71.7,29.92,SW,232,0.0,0.0,99,0.00,,,0.00,perl,2013-06-26 09:04:00,
2013-06-26 05:09:00,72.1,71.8,29.92,WSW,246,0.0,0.0,99,0.00,,,0.00,perl,2013-06-26 09:09:00,
2013-06-26 05:14:00,72.2,71.9,29.93,WSW,246,0.0,0.0,99,0.00,,,0.00,perl,2013-06-26 09:14:00,
2013-06-26 05:19:00,72.4,71.8,29.93,WSW,247,0.0,0.0,98,0.00,,,0.00,perl,2013-06-26 09:19:00,
2013-06-26 05:24:00,72.4,71.8,29.93,WSW,247,0.0,0.0,98,0.00,,,0.00,perl,2013-06-26 09:24:00,
2013-06-26 05:29:00,72.4,71.8,29.92,WSW,247,0.0,0.0,98,0.00,,,0.00,perl,2013-06-26 09:29:00,
2013-06-26 05:34:00,72.4,71.8,29.92,WSW,246,0.0,0.0,98,0.00,,,0.00,perl,2013-06-26 09:34:00,
2013-06-26 05:39:00,72.3,71.7,29.92,WSW,247,0.0,0.0,98,0.00,,,0.00,perl,2013-06-26 09:39:00,
2013-06-26 05:44:00,72.3,71.7,29.93,WSW,247,0.0,0.0,98,0.00,,,0.00,perl,2013-06-26 09:44:00,
2013-06-26 05:49:00,72.2,71.6,29.93,WSW,247,0.0,0.0,98,0.00,,,0.00,perl,2013-06-26 09:49:00,
2013-06-26 05:54:00,72.2,71.6,29.93,WSW,246,0.0,0.0,98,0.00,,,0.00,perl,2013-06-26 09:54:00,
2013-06-26 05:59:00,72.1,71.5,29.93,WSW,247,0.0,0.0,98,0.00,,,0.00,perl,2013-06-26 09:59:00,
2013-06-26 06:04:00,72.0,71.4,29.93,WSW,247,0.0,0.0,98,0.00,,,0.00,perl,2013-06-26 10:04:00,
2013-06-26 06:09:00,71.8,71.2,29.93,WSW,246,0.0,0.0,98,0.00,,,0.00,perl,2013-06-26 10:09:00,
2013-06-26 06:14:00,71.7,71.1,29.93,WSW,247,0.0,0.0,98,0.00,,,0.00,perl,2013-06-26 10:14:00,
2013-06-26 06:19:00,71.6,71.0,29.93,WSW,247,0.0,0.0,98,0.00,,,0.00,perl,2013-06-26 10:19:00,
2013-06-26 06:24:00,71.5,70.9,29.93,WSW,247,0.0,0.0,98,0.00,,,0.00,perl,2013-06-26 10:24:00,
2013-06-26 06:29:00,71.3,70.7,29.93,WSW,246,0.0,0.0,98,0.00,,,0.00,perl,2013-06-26 10:29:00,
2013-06-26 06:34:00,71.3,71.0,29.93,WSW,247,0.0,0.0,99,0.00,,,0.00,perl,2013-06-26 10:34:00,
2013-06-26 06:39:00,71.3,71.0,29.93,WSW,247,0.0,0.0,99,0.00,,,0.00,perl,2013-06-26 10:39:00,
2013-06-26 06:44:00,71.2,70.9,29.93,WSW,246,0.0,0.0,99,0.00,,,0.00,perl,2013-06-26 10:44:00,
2013-06-26 06:49:00,71.1,70.8,29.93,WSW,246,0.0,0.0,99,0.00,,,0.00,perl,2013-06-26 10:49:00,
2013-06-26 06:54:00,71.2,70.9,29.93,WSW,247,0.0,0.0,99,0.00,,,0.00,perl,2013-06-26 10:54:00,
2013-06-26 06:59:00,71.3,71.3,29.93,WSW,247,0.0,0.0,100,0.00,,,0.00,perl,2013-06-26 10:59:00,
2013-06-26 07:04:00,71.3,71.3,29.93,WSW,246,0.0,0.0,100,0.00,,,0.00,perl,2013-06-26 11:04:00,
2013-06-26 07:09:00,71.3,71.3,29.93,WSW,247,0.0,0.0,100,0.00,,,0.00,perl,2013-06-26 11:09:00,
2013-06-26 07:14:00,71.3,71.3,29.93,WSW,247,0.0,0.0,100,0.00,,,0.00,perl,2013-06-26 11:14:00,
2013-06-26 07:19:00,71.3,71.3,29.93,WSW,246,0.0,0.0,100,0.00,,,0.00,perl,2013-06-26 11:19:00,
2013-06-26 07:24:00,71.4,71.4,29.93,WSW,246,0.0,0.0,100,0.00,,,0.00,perl,2013-06-26 11:24:00,
2013-06-26 07:29:00,71.5,71.5,29.93,WSW,247,0.0,0.0,100,0.00,,,0.00,perl,2013-06-26 11:29:00,
2013-06-26 07:34:00,71.6,71.6,29.93,WSW,247,0.0,0.0,100,0.00,,,0.00,perl,2013-06-26 11:34:00,
2013-06-26 07:39:00,71.6,71.3,29.93,WSW,247,0.0,0.0,99,0.00,,,0.00,perl,2013-06-26 11:39:00,
2013-06-26 07:44:00,71.7,71.7,29.92,WSW,246,0.0,0.0,100,0.00,,,0.00,perl,2013-06-26 11:44:00,
2013-06-26 07:49:00,71.8,71.5,29.92,WSW,247,0.0,0.0,99,0.00,,,0.00,perl,2013-06-26 11:49:00,
2013-06-26 07:54:00,71.8,71.8,29.92,WSW,247,0.0,0.0,100,0.00,,,0.00,perl,2013-06-26 11:54:00,
2013-06-26 08:00:00,72.0,72.0,29.92,WSW,246,0.0,0.0,100,0.00,,,0.00,perl,2013-06-26 12:00:00,
2013-06-26 08:05:00,72.1,71.8,29.92,WSW,246,0.0,0.0,99,0.00,,,0.00,perl,2013-06-26 12:05:00,
2013-06-26 08:10:00,72.2,71.9,29.92,South,189,0.0,0.0,99,0.00,,,0.00,perl,2013-06-26 12:10:00,
2013-06-26 08:15:00,72.3,72.0,29.92,South,189,0.0,0.0,99,0.00,,,0.00,perl,2013-06-26 12:15:00,
2013-06-26 08:20:00,72.4,72.1,29.92,South,189,0.0,0.0,99,0.00,,,0.00,perl,2013-06-26 12:20:00,
2013-06-26 08:25:00,72.5,72.2,29.92,South,188,0.0,0.0,99,0.00,,,0.00,perl,2013-06-26 12:25:00,
2013-06-26 08:30:00,72.7,72.4,29.91,South,189,0.0,0.0,99,0.00,,,0.00,perl,2013-06-26 12:30:00,
2013-06-26 08:36:00,72.8,72.2,29.91,SSW,195,0.0,0.0,98,0.00,,,0.00,perl,2013-06-26 12:36:00,
2013-06-26 08:41:00,73.1,72.5,29.91,SSW,194,0.0,0.0,98,0.00,,,0.00,perl,2013-06-26 12:41:00,
2013-06-26 08:47:00,73.5,72.6,29.91,SSW,207,0.0,0.0,97,0.00,,,0.00,perl,2013-06-26 12:47:00,
2013-06-26 08:52:00,73.9,72.3,29.91,SSW,192,0.0,0.0,95,0.00,,,0.00,perl,2013-06-26 12:52:00,
2013-06-26 08:57:00,74.3,72.4,29.91,SW,231,0.0,0.0,94,0.00,,,0.00,perl,2013-06-26 12:57:00,
2013-06-26 09:02:00,74.8,72.3,29.91,SSW,194,0.0,0.0,92,0.00,,,0.00,perl,2013-06-26 13:02:00,
2013-06-26 09:07:00,75.1,72.0,29.91,SSW,195,0.0,0.0,90,0.00,,,0.00,perl,2013-06-26 13:07:00,
2013-06-26 09:12:00,75.4,71.6,29.91,WSW,239,0.0,0.0,88,0.00,,,0.00,perl,2013-06-26 13:12:00,
2013-06-26 09:18:00,75.7,71.6,29.91,SW,234,0.0,0.0,87,0.00,,,0.00,perl,2013-06-26 13:18:00,
2013-06-26 09:23:00,75.8,71.0,29.91,SW,234,0.0,0.0,85,0.00,,,0.00,perl,2013-06-26 13:23:00,
2013-06-26 09:29:00,76.2,71.4,29.93,WSW,237,0.0,0.0,85,0.00,,,0.00,perl,2013-06-26 13:29:00,
2013-06-26 09:34:00,76.3,71.5,29.93,WSW,237,0.0,0.0,85,0.00,,,0.00,perl,2013-06-26 13:34:00,
2013-06-26 09:39:00,76.3,71.5,29.93,WSW,237,0.0,0.0,85,0.00,,,0.00,perl,2013-06-26 13:39:00,
2013-06-26 09:44:00,76.0,71.5,29.94,SW,217,0.0,0.0,86,0.00,,,0.00,perl,2013-06-26 13:44:00,
2013-06-26 09:49:00,75.8,71.0,29.94,SW,218,0.0,0.0,85,0.00,,,0.00,perl,2013-06-26 13:49:00,
2013-06-26 09:54:00,75.6,71.1,29.94,SW,221,0.0,0.0,86,0.00,,,0.00,perl,2013-06-26 13:54:00,
2013-06-26 09:59:00,75.3,70.8,29.94,SW,221,0.0,0.0,86,0.00,,,0.00,perl,2013-06-26 13:59:00,
2013-06-26 10:04:00,75.1,71.3,29.94,SW,221,0.0,0.0,88,0.00,,,0.00,perl,2013-06-26 14:04:00,
2013-06-26 10:09:00,74.9,71.1,29.94,SW,221,0.0,0.0,88,0.00,,,0.00,perl,2013-06-26 14:09:00,
2013-06-26 10:14:00,74.7,70.9,29.94,SW,221,0.0,0.0,88,0.00,,,0.00,perl,2013-06-26 14:14:00,
2013-06-26 10:19:00,74.7,70.9,29.94,SW,221,0.0,0.0,88,0.00,,,0.00,perl,2013-06-26 14:19:00,
2013-06-26 10:24:00,74.5,71.0,29.94,SW,221,0.0,0.0,89,0.00,,,0.00,perl,2013-06-26 14:24:00,
2013-06-26 10:29:00,74.3,71.2,29.95,SW,221,0.0,0.0,90,0.00,,,0.00,perl,2013-06-26 14:29:00,
2013-06-26 10:34:00,74.1,71.3,29.95,SW,221,0.0,0.0,91,0.00,,,0.00,perl,2013-06-26 14:34:00,
2013-06-26 10:39:00,74.1,71.3,29.95,SW,221,0.0,0.0,91,0.00,,,0.00,perl,2013-06-26 14:39:00,
2013-06-26 10:44:00,74.0,71.5,29.95,SW,221,0.0,0.0,92,0.00,,,0.00,perl,2013-06-26 14:44:00,
2013-06-26 10:49:00,73.9,71.7,29.95,SW,221,0.0,0.0,93,0.00,,,0.00,perl,2013-06-26 14:49:00,
2013-06-26 10:54:00,73.9,71.7,29.95,SW,221,0.0,0.0,93,0.00,,,0.00,perl,2013-06-26 14:54:00,
2013-06-26 10:59:00,74.0,72.1,29.95,SW,221,0.0,0.0,94,0.00,,,0.00,perl,2013-06-26 14:59:00,
2013-06-26 11:04:00,74.1,72.2,29.95,SW,221,0.0,0.0,94,0.00,,,0.00,perl,2013-06-26 15:04:00,
2013-06-26 11:09:00,74.2,72.3,29.95,SW,221,0.0,0.0,94,0.00,,,0.00,perl,2013-06-26 15:09:00,
2013-06-26 11:14:00,74.4,72.5,29.95,SW,221,0.0,0.0,94,0.00,,,0.00,perl,2013-06-26 15:14:00,
2013-06-26 11:19:00,74.6,72.4,29.95,SW,221,0.0,0.0,93,0.00,,,0.00,perl,2013-06-26 15:19:00,
2013-06-26 11:24:00,74.9,71.8,29.95,SW,221,0.0,0.0,90,0.00,,,0.00,perl,2013-06-26 15:24:00,
2013-06-26 11:29:00,75.3,71.2,29.95,SW,230,0.0,0.0,87,0.00,,,0.00,perl,2013-06-26 15:29:00,
2013-06-26 11:34:00,75.7,71.2,29.94,SW,231,0.0,0.0,86,0.00,,,0.00,perl,2013-06-26 15:34:00,
2013-06-26 11:39:00,76.3,71.5,29.94,SW,231,0.0,0.0,85,0.00,,,0.00,perl,2013-06-26 15:39:00,
2013-06-26 11:44:00,76.7,71.2,29.95,SSW,206,0.0,0.0,83,0.00,,,0.00,perl,2013-06-26 15:44:00,
2013-06-26 11:49:00,77.1,71.6,29.95,SSW,207,0.0,0.0,83,0.00,,,0.00,perl,2013-06-26 15:49:00,
2013-06-26 11:54:00,77.8,71.9,29.95,SSW,207,0.0,0.0,82,0.00,,,0.00,perl,2013-06-26 15:54:00,
2013-06-26 11:59:00,78.7,71.8,29.95,SSW,203,0.0,0.0,79,0.00,,,0.00,perl,2013-06-26 15:59:00,
2013-06-26 12:02:00,79.4,72.4,29.95,SSW,204,0.0,0.0,79,0.00,,,0.00,perl,2013-06-26 16:02:00,
2013-06-26 12:07:00,79.8,72.5,29.95,SSW,205,0.0,0.0,78,0.00,,,0.00,perl,2013-06-26 16:07:00,
2013-06-26 12:12:00,80.3,72.2,29.95,WSW,251,0.0,0.0,76,0.00,,,0.00,perl,2013-06-26 16:12:00,
2013-06-26 12:17:00,80.6,72.5,29.95,SW,215,0.0,0.0,76,0.00,,,0.00,perl,2013-06-26 16:17:00,
2013-06-26 12:23:00,81.4,73.3,29.95,SW,227,0.0,0.0,76,0.00,,,0.00,perl,2013-06-26 16:23:00,
2013-06-26 12:28:00,81.8,72.5,29.95,SW,221,0.0,0.0,73,0.00,,,0.00,perl,2013-06-26 16:28:00,
2013-06-26 12:33:00,82.3,73.0,29.95,SSW,211,0.0,0.0,73,0.00,,,0.00,perl,2013-06-26 16:33:00,
2013-06-26 12:38:00,82.9,73.2,29.95,SW,215,0.0,0.0,72,0.00,,,0.00,perl,2013-06-26 16:38:00,
2013-06-26 12:43:00,83.5,73.3,29.95,WSW,252,0.0,0.0,71,0.00,,,0.00,perl,2013-06-26 16:43:00,
2013-06-26 12:48:00,83.5,73.3,29.94,South,183,0.0,0.0,71,0.00,,,0.00,perl,2013-06-26 16:48:00,
2013-06-26 12:53:00,83.6,73.4,29.94,SW,225,0.0,0.0,71,0.00,,,0.00,perl,2013-06-26 16:53:00,
2013-06-26 12:58:00,83.4,72.8,29.94,SW,223,0.0,0.0,70,0.00,,,0.00,perl,2013-06-26 16:58:00,
2013-06-26 13:03:00,83.3,72.7,29.94,SSW,209,0.0,0.0,70,0.00,,,0.00,perl,2013-06-26 17:03:00,
2013-06-26 13:08:00,83.7,73.5,29.94,SSW,202,0.0,0.0,71,0.00,,,0.00,perl,2013-06-26 17:08:00,
2013-06-26 13:13:00,84.1,73.5,29.94,SSW,194,0.0,0.0,70,0.00,,,0.00,perl,2013-06-26 17:13:00,
2013-06-26 13:19:00,84.2,74.0,29.94,WSW,238,0.0,0.0,71,0.00,,,0.00,perl,2013-06-26 17:19:00,
2013-06-26 13:24:00,84.5,73.9,29.94,WSW,238,0.0,0.0,70,0.00,,,0.00,perl,2013-06-26 17:24:00,
2013-06-26 13:29:00,84.6,74.0,29.94,South,175,0.0,0.0,70,0.00,,,0.00,perl,2013-06-26 17:29:00,
2013-06-26 13:34:00,84.7,73.2,29.94,SW,215,0.0,0.0,68,0.00,,,0.00,perl,2013-06-26 17:34:00,
2013-06-26 13:39:00,84.6,74.0,29.94,SW,215,0.0,0.0,70,0.00,,,0.00,perl,2013-06-26 17:39:00,
2013-06-26 13:44:00,84.8,73.3,29.94,SW,221,0.0,0.0,68,0.00,,,0.00,perl,2013-06-26 17:44:00,
2013-06-26 13:49:00,85.2,74.6,29.93,SSW,202,0.0,0.0,70,0.00,,,0.00,perl,2013-06-26 17:49:00,
2013-06-26 13:54:00,85.6,74.5,29.93,South,183,0.0,0.0,69,0.00,,,0.00,perl,2013-06-26 17:54:00,
2013-06-26 13:59:00,85.7,74.6,29.93,South,184,0.0,0.0,69,0.00,,,0.00,perl,2013-06-26 17:59:00,
2013-06-26 14:04:00,85.6,74.5,29.92,South,190,0.0,0.0,69,0.00,,,0.00,perl,2013-06-26 18:04:00,
2013-06-26 14:09:00,85.8,73.8,29.92,South,188,0.0,0.0,67,0.00,,,0.00,perl,2013-06-26 18:09:00,
2013-06-26 14:15:00,86.0,73.6,29.92,South,169,0.0,0.0,66,0.00,,,0.00,perl,2013-06-26 18:15:00,
2013-06-26 14:20:00,86.3,73.9,29.92,SW,230,0.0,0.0,66,0.00,,,0.00,perl,2013-06-26 18:20:00,
2013-06-26 14:25:00,86.3,74.8,29.92,SW,230,0.0,0.0,68,0.00,,,0.00,perl,2013-06-26 18:25:00,
2013-06-26 14:30:00,86.4,74.4,29.91,SW,217,0.0,0.0,67,0.00,,,0.00,perl,2013-06-26 18:30:00,
2013-06-26 14:36:00,86.7,74.7,29.91,SW,219,0.0,0.0,67,0.00,,,0.00,perl,2013-06-26 18:36:00,
2013-06-26 14:41:00,87.1,75.1,29.91,SW,219,0.0,0.0,67,0.00,,,0.00,perl,2013-06-26 18:41:00,
2013-06-26 14:46:00,86.8,73.4,29.91,WSW,237,0.0,0.0,64,0.00,,,0.00,perl,2013-06-26 18:46:00,
2013-06-26 14:51:00,86.8,74.8,29.91,SW,229,0.0,0.0,67,0.00,,,0.00,perl,2013-06-26 18:51:00,
2013-06-26 14:56:00,87.1,75.1,29.91,SSW,204,0.0,0.0,67,0.00,,,0.00,perl,2013-06-26 18:56:00,
2013-06-26 15:01:00,87.3,74.4,29.90,SSW,204,0.0,0.0,65,0.00,,,0.00,perl,2013-06-26 19:01:00,
2013-06-26 15:07:00,87.4,74.5,29.90,South,178,0.0,0.0,65,0.00,,,0.00,perl,2013-06-26 19:07:00,
2013-06-26 15:12:00,87.1,74.6,29.90,South,178,0.0,0.0,66,0.00,,,0.00,perl,2013-06-26 19:12:00,
2013-06-26 15:17:00,86.9,75.3,29.89,South,178,0.0,0.0,68,0.00,,,0.00,perl,2013-06-26 19:17:00,
2013-06-26 15:23:00,86.9,74.9,29.89,South,181,0.0,0.0,67,0.00,,,0.00,perl,2013-06-26 19:23:00,
2013-06-26 15:29:00,86.6,74.2,29.89,South,180,0.0,0.0,66,0.00,,,0.00,perl,2013-06-26 19:29:00,
2013-06-26 15:34:00,86.8,75.2,29.89,South,181,0.0,0.0,68,0.00,,,0.00,perl,2013-06-26 19:34:00,
2013-06-26 15:40:00,87.0,74.1,29.89,South,191,0.0,0.0,65,0.00,,,0.00,perl,2013-06-26 19:40:00,
2013-06-26 15:45:00,87.0,74.5,29.87,South,191,0.0,0.0,66,0.00,,,0.00,perl,2013-06-26 19:45:00,
2013-06-26 15:50:00,86.4,74.9,29.87,SW,221,0.0,0.0,68,0.00,,,0.00,perl,2013-06-26 19:50:00,
2013-06-26 15:55:00,85.8,74.3,29.87,WSW,239,0.0,0.0,68,0.00,,,0.00,perl,2013-06-26 19:55:00,
2013-06-26 16:00:00,85.9,74.8,29.86,WSW,239,0.0,0.0,69,0.00,,,0.00,perl,2013-06-26 20:00:00,
2013-06-26 16:05:00,85.9,73.9,29.86,WSW,238,0.0,0.0,67,0.00,,,0.00,perl,2013-06-26 20:05:00,
2013-06-26 16:10:00,86.0,75.3,29.86,WSW,238,0.0,0.0,70,0.00,,,0.00,perl,2013-06-26 20:10:00,
2013-06-26 16:15:00,85.9,74.4,29.86,SW,234,0.0,0.0,68,0.00,,,0.00,perl,2013-06-26 20:15:00,
2013-06-26 16:20:00,85.9,75.2,29.86,SW,234,0.0,0.0,70,0.00,,,0.00,perl,2013-06-26 20:20:00,
2013-06-26 16:25:00,85.7,74.6,29.86,SW,234,0.0,0.0,69,0.00,,,0.00,perl,2013-06-26 20:25:00,
2013-06-26 16:30:00,85.9,74.8,29.86,SW,233,0.0,0.0,69,0.00,,,0.00,perl,2013-06-26 20:30:00,
2013-06-26 16:35:00,85.9,74.8,29.86,SW,234,0.0,0.0,69,0.00,,,0.00,perl,2013-06-26 20:35:00,
2013-06-26 16:40:00,85.7,75.0,29.86,SW,234,0.0,0.0,70,0.00,,,0.00,perl,2013-06-26 20:40:00,
2013-06-26 16:45:00,85.7,74.6,29.85,SW,217,0.0,0.0,69,0.00,,,0.00,perl,2013-06-26 20:45:00,
2013-06-26 16:50:00,85.7,75.0,29.85,SW,217,0.0,0.0,70,0.00,,,0.00,perl,2013-06-26 20:50:00,
2013-06-26 16:55:00,85.7,75.0,29.85,SW,217,0.0,0.0,70,0.00,,,0.00,perl,2013-06-26 20:55:00,
2013-06-26 17:00:00,85.7,75.9,29.85,SW,217,0.0,0.0,72,0.00,,,0.00,perl,2013-06-26 21:00:00,
2013-06-26 17:06:00,85.8,75.6,29.85,SW,217,0.0,0.0,71,0.00,,,0.00,perl,2013-06-26 21:06:00,
2013-06-26 17:11:00,86.0,75.7,29.85,SW,217,0.0,0.0,71,0.00,,,0.00,perl,2013-06-26 21:11:00,
2013-06-26 17:17:00,85.9,75.2,29.84,SW,217,0.0,0.0,70,0.00,,,0.00,perl,2013-06-26 21:17:00,
2013-06-26 17:23:00,85.3,75.5,29.84,SW,217,0.0,0.0,72,0.00,,,0.00,perl,2013-06-26 21:23:00,
2013-06-26 17:28:00,84.9,75.1,29.84,SW,217,0.0,0.0,72,0.00,,,0.00,perl,2013-06-26 21:28:00,
2013-06-26 17:33:00,84.6,75.2,29.83,SW,217,0.0,0.0,73,0.00,,,0.00,perl,2013-06-26 21:33:00,
2013-06-26 17:39:00,84.3,75.7,29.83,SW,217,0.0,0.0,75,0.00,,,0.00,perl,2013-06-26 21:39:00,
2013-06-26 17:44:00,84.2,74.8,29.83,SW,217,0.0,0.0,73,0.00,,,0.00,perl,2013-06-26 21:44:00,
2013-06-26 17:49:00,84.6,75.2,29.83,SW,217,0.0,0.0,73,0.00,,,0.00,perl,2013-06-26 21:49:00,
2013-06-26 17:54:00,84.7,76.1,29.83,SW,217,0.0,0.0,75,0.00,,,0.00,perl,2013-06-26 21:54:00,
2013-06-26 17:59:00,84.4,75.8,29.83,SW,217,0.0,0.0,75,0.00,,,0.00,perl,2013-06-26 21:59:00,
2013-06-26 18:04:00,84.0,75.4,29.82,SW,217,0.0,0.0,75,0.00,,,0.00,perl,2013-06-26 22:04:00,
2013-06-26 18:09:00,84.2,75.6,29.82,SW,217,0.0,0.0,75,0.00,,,0.00,perl,2013-06-26 22:09:00,
2013-06-26 18:14:00,84.2,75.6,29.82,SW,217,0.0,0.0,75,0.00,,,0.00,perl,2013-06-26 22:14:00,
2013-06-26 18:19:00,84.0,75.4,29.82,SW,217,0.0,0.0,75,0.00,,,0.00,perl,2013-06-26 22:19:00,
2013-06-26 18:24:00,83.9,76.1,29.82,SW,217,0.0,0.0,77,0.00,,,0.00,perl,2013-06-26 22:24:00,
2013-06-26 18:29:00,83.6,75.4,29.82,SW,217,0.0,0.0,76,0.00,,,0.00,perl,2013-06-26 22:29:00,
2013-06-26 18:34:00,83.6,76.2,29.82,SW,217,0.0,0.0,78,0.00,,,0.00,perl,2013-06-26 22:34:00,
2013-06-26 18:39:00,83.6,75.8,29.82,South,188,0.0,0.0,77,0.00,,,0.00,perl,2013-06-26 22:39:00,
2013-06-26 18:44:00,83.3,75.1,29.82,South,181,0.0,0.0,76,0.00,,,0.00,perl,2013-06-26 22:44:00,
2013-06-26 18:49:00,83.2,75.8,29.82,South,180,0.0,0.0,78,0.00,,,0.00,perl,2013-06-26 22:49:00,
2013-06-26 18:54:00,83.1,76.0,29.82,South,180,0.0,0.0,79,0.00,,,0.00,perl,2013-06-26 22:54:00,
2013-06-26 18:59:00,82.9,76.2,29.82,South,182,0.0,0.0,80,0.00,,,0.00,perl,2013-06-26 22:59:00,
2013-06-26 19:04:00,82.7,76.0,29.82,South,182,0.0,0.0,80,0.00,,,0.00,perl,2013-06-26 23:04:00,
2013-06-26 19:09:00,82.5,75.8,29.82,South,181,0.0,0.0,80,0.00,,,0.00,perl,2013-06-26 23:09:00,
2013-06-26 19:14:00,82.4,75.7,29.82,South,180,0.0,0.0,80,0.00,,,0.00,perl,2013-06-26 23:14:00,
2013-06-26 19:19:00,82.3,76.0,29.82,South,182,0.0,0.0,81,0.00,,,0.00,perl,2013-06-26 23:19:00,
2013-06-26 19:24:00,82.1,75.4,29.82,South,181,0.0,0.0,80,0.00,,,0.00,perl,2013-06-26 23:24:00,
2013-06-26 19:29:00,82.1,75.4,29.82,South,182,0.0,0.0,80,0.00,,,0.00,perl,2013-06-26 23:29:00,
2013-06-26 19:34:00,81.9,75.6,29.82,South,181,0.0,0.0,81,0.00,,,0.00,perl,2013-06-26 23:34:00,
2013-06-26 19:40:00,81.8,75.5,29.82,South,182,0.0,0.0,81,0.00,,,0.00,perl,2013-06-26 23:40:00,
2013-06-26 19:45:00,81.7,75.4,29.82,South,182,0.0,0.0,81,0.00,,,0.00,perl,2013-06-26 23:45:00,
2013-06-26 19:50:00,81.7,75.0,29.82,South,181,0.0,0.0,80,0.00,,,0.00,perl,2013-06-26 23:50:00,
2013-06-26 19:55:00,81.7,74.7,29.82,South,180,0.0,0.0,79,0.00,,,0.00,perl,2013-06-26 23:55:00,
2013-06-26 20:01:00,81.7,74.7,29.82,South,181,0.0,0.0,79,0.00,,,0.00,perl,2013-06-27 00:01:00,
2013-06-26 20:07:00,81.6,74.9,29.82,South,181,0.0,0.0,80,0.00,,,0.00,perl,2013-06-27 00:07:00,
2013-06-26 20:13:00,81.5,74.5,29.82,South,182,0.0,0.0,79,0.00,,,0.00,perl,2013-06-27 00:13:00,
2013-06-26 20:18:00,81.4,74.4,29.81,South,182,0.0,0.0,79,0.00,,,0.00,perl,2013-06-27 00:18:00,
2013-06-26 20:23:00,81.3,74.3,29.81,South,182,0.0,0.0,79,0.00,,,0.00,perl,2013-06-27 00:23:00,
2013-06-26 20:28:00,81.2,74.6,29.81,SW,223,0.0,0.0,80,0.00,,,0.00,perl,2013-06-27 00:28:00,
2013-06-26 20:34:00,81.1,74.5,29.80,SW,230,0.0,0.0,80,0.00,,,0.00,perl,2013-06-27 00:34:00,
2013-06-26 20:39:00,80.9,75.0,29.80,SW,230,0.0,0.0,82,0.00,,,0.00,perl,2013-06-27 00:39:00,
2013-06-26 20:44:00,80.1,72.4,29.80,South,172,0.0,0.0,77,0.00,,,0.00,perl,2013-06-27 00:44:00,
2013-06-26 20:49:00,78.7,72.1,29.83,SSW,193,0.0,0.0,80,2.64,,,0.09,perl,2013-06-27 00:49:00,
2013-06-26 20:54:00,76.2,70.7,29.83,South,172,0.0,0.0,83,0.27,,,0.12,perl,2013-06-27 00:54:00,
2013-06-26 20:59:00,74.3,69.5,29.83,WSW,244,0.0,0.0,85,0.30,,,0.14,perl,2013-06-27 00:59:00,
2013-06-26 21:04:00,73.0,69.2,29.83,SW,236,0.0,0.0,88,0.15,,,0.15,perl,2013-06-27 01:04:00,
2013-06-26 21:09:00,71.8,68.4,29.83,SW,229,0.0,0.0,89,0.08,,,0.15,perl,2013-06-27 01:09:00,
2013-06-26 21:14:00,71.1,68.3,29.83,SSW,207,0.0,0.0,91,0.08,,,0.16,perl,2013-06-27 01:14:00,
2013-06-26 21:19:00,70.4,68.2,29.83,SSW,207,0.0,0.0,93,0.06,,,0.16,perl,2013-06-27 01:19:00,
2013-06-26 21:24:00,69.9,68.1,29.83,SW,230,0.0,0.0,94,0.04,,,0.16,perl,2013-06-27 01:24:00,
2013-06-26 21:29:00,69.5,68.0,29.83,SW,234,0.0,0.0,95,0.00,,,0.16,perl,2013-06-27 01:29:00,
2013-06-26 21:34:00,69.1,67.9,29.82,SW,229,0.0,0.0,96,0.00,,,0.17,perl,2013-06-27 01:34:00,
2013-06-26 21:39:00,69.1,68.2,29.82,SW,229,0.0,0.0,97,0.00,,,0.17,perl,2013-06-27 01:39:00,
2013-06-26 21:44:00,68.9,68.0,29.82,SW,226,0.0,0.0,97,0.00,,,0.17,perl,2013-06-27 01:44:00,
2013-06-26 21:49:00,68.8,67.9,29.82,SW,227,0.0,0.0,97,0.00,,,0.17,perl,2013-06-27 01:49:00,
2013-06-26 21:54:00,68.8,67.9,29.82,SW,227,0.0,0.0,97,0.00,,,0.17,perl,2013-06-27 01:54:00,
2013-06-26 21:59:00,68.7,68.1,29.82,SW,226,0.0,0.0,98,0.00,,,0.17,perl,2013-06-27 01:59:00,
2013-06-26 22:04:00,68.7,68.1,29.82,SW,226,0.0,0.0,98,0.00,,,0.17,perl,2013-06-27 02:04:00,
2013-06-26 22:09:00,68.7,68.1,29.82,SW,227,0.0,0.0,98,0.00,,,0.17,perl,2013-06-27 02:09:00,
2013-06-26 22:14:00,68.8,68.2,29.82,SW,227,0.0,0.0,98,0.00,,,0.17,perl,2013-06-27 02:14:00,
2013-06-26 22:19:00,68.8,68.2,29.82,SW,227,0.0,0.0,98,0.00,,,0.17,perl,2013-06-27 02:19:00,
2013-06-26 22:24:00,68.9,68.6,29.82,SW,227,0.0,0.0,99,0.00,,,0.17,perl,2013-06-27 02:24:00,
2013-06-26 22:29:00,68.9,68.6,29.82,SW,227,0.0,0.0,99,0.00,,,0.17,perl,2013-06-27 02:29:00,
2013-06-26 22:34:00,68.8,68.5,29.83,SW,227,0.0,0.0,99,0.00,,,0.17,perl,2013-06-27 02:34:00,
2013-06-26 22:39:00,68.6,68.3,29.83,SW,227,0.0,0.0,99,0.00,,,0.17,perl,2013-06-27 02:39:00,
2013-06-26 22:44:00,68.6,68.3,29.83,SW,227,0.0,0.0,99,0.00,,,0.17,perl,2013-06-27 02:44:00,
2013-06-26 22:49:00,68.6,68.3,29.84,SW,227,0.0,0.0,99,0.00,,,0.17,perl,2013-06-27 02:49:00,
2013-06-26 22:54:00,68.5,68.2,29.84,SW,227,0.0,0.0,99,0.00,,,0.17,perl,2013-06-27 02:54:00,
2013-06-26 22:59:00,68.5,68.2,29.84,SW,227,0.0,0.0,99,0.00,,,0.17,perl,2013-06-27 02:59:00,
2013-06-26 23:04:00,68.5,68.2,29.84,SW,227,0.0,0.0,99,0.00,,,0.17,perl,2013-06-27 03:04:00,
2013-06-26 23:09:00,68.5,68.2,29.84,SW,227,0.0,0.0,99,0.00,,,0.17,perl,2013-06-27 03:09:00,
2013-06-26 23:14:00,68.5,68.5,29.84,SW,226,0.0,0.0,100,0.00,,,0.18,perl,2013-06-27 03:14:00,
2013-06-26 23:19:00,68.6,68.6,29.83,SW,227,0.0,0.0,100,0.00,,,0.18,perl,2013-06-27 03:19:00,
2013-06-26 23:24:00,68.7,68.7,29.83,SW,227,0.0,0.0,100,0.00,,,0.18,perl,2013-06-27 03:24:00,
2013-06-26 23:29:00,68.7,68.7,29.83,SW,227,0.0,0.0,100,0.00,,,0.18,perl,2013-06-27 03:29:00,
2013-06-26 23:34:00,68.7,68.7,29.83,SW,227,0.0,0.0,100,0.00,,,0.18,perl,2013-06-27 03:34:00,
2013-06-26 23:39:00,68.7,68.7,29.83,SW,227,0.0,0.0,100,0.00,,,0.18,perl,2013-06-27 03:39:00,
2013-06-26 23:44:00,68.7,68.7,29.83,SW,227,0.0,0.0,100,0.00,,,0.18,perl,2013-06-27 03:44:00,
2013-06-26 23:49:00,68.6,68.6,29.83,SW,227,0.0,0.0,100,0.00,,,0.18,perl,2013-06-27 03:49:00,
2013-06-26 23:54:00,68.7,68.7,29.83,SW,226,0.0,0.0,100,0.00,,,0.18,perl,2013-06-27 03:54:00,
2013-06-26 23:59:00,68.7,68.7,29.83,SW,227,0.0,0.0,100,0.00,,,0.18,perl,2013-06-27 03:59:00,